Location: ????????
(56.1167°N, 38.6333°E)
Time: 21:53:18
(UTC+00:00)

Cosmos 304 Rocket - Pass Details

Date: 18 November 2025
Orbit: 668 x 677 km, 74.0° (Epoch: 06 December)

Event Time Altitude Azimuth Distance (km) Brightness Sun altitude
Rises 15:25:48 0° 178° (S) 3,007 7.2 -18.1°
Reaches altitude 10° 15:28:14 10° 169° (S) 2,099 6.2 -18.4°
Enters shadow 15:32:02 34° 117° (ESE) 1,119 4.4 -18.9°
